Airfield :
LOGIN :

Register | Disclaimer

   EN    FR    IT 

 










Legend :    VFR   Marginal VFR   IFR   Intensive IFR   Very Intensive IFR
Visi :
Ceiling :
>= 8 km
>= 3000ft
5 to 8 km
1000 to 3000 ft
1500m to 5 km
500 to 1000 ft
800 to 1500m
200 to 500 ft
< 800m
< 200 ft
Symbols :   Thunderstorms  Fog  Heavy snow  Heavy precipitations  Wind > 20 kt
SIGMETs :     Misc.  Thunderstorms  Icing  Turbulence  Mountain Waves  Volcanic Ashes







- Airport Elevation : 915 ft
- IATA code : LUG


LSZA - Lugano

CURRENT METAR :
  • 152220Z AUTO VRB03KT 9999 NSC M01/M05 Q1019

EXPIRED METARs :
  • 152150Z AUTO VRB02KT CAVOK M03/M05 Q1020
  • 152120Z AUTO VRB01KT CAVOK M02/M05 Q1020
  • 152050Z VRB03KT CAVOK M03/M05 Q1019 NOSIG
  • 152020Z 36003KT CAVOK M02/M05 Q1020 NOSIG
  • 151950Z 35003KT CAVOK M03/M05 Q1019 NOSIG
  • 151920Z VRB01KT CAVOK M02/M04 Q1019 NOSIG

TAF TAF LSZA
Valid from the 15 at 15:00 until the 16 at 00:00 UTC


151425Z 1515/1524 VRB03KT CAVOK
TEMPO 1518/1524 9999 BKN120
ATIS : +41 22 417 40 88
No reported NOTAMs for that airfield.



MET'MAP, your aeronautical weather chart ! - Copyright ORBIFLY December 2007 - Disclaimer

ORBIFLY MET'MAP TEAM :

Programming & Development : Alexandra Zaïnal
Concept & Development : Baudouin d'Aumeries
Co-Development & Prog : Marc-Olivier Méhu
Technical & hardware support : Manuel Goepfert

Contact : metmap@orbifly.com




SOURCES & CREDITS :

   NOAA